Location: Brachbach
(49.1847°N, 9.7240°E)
Time: 05:30:59
(UTC+00:00)

PCSat - Pass Details

Date: 12 March 2026
Orbit: 780 x 790 km, 67.1° (Epoch: 13 April)

Event Time Altitude Azimuth Distance (km) Brightness Sun altitude
Exits shadow 00:26:03 15° 16° (NNE) 2,029 12.2 -42.7°
Drops below altitude 10° 00:27:07 10° 23° (NNE) 2,363 12.6 -42.7°
Sets 00:29:49 0° 34° (NE) 3,296 13.6 -42.5°
